Total_Precipitation_Accumulation
0.64 0.54 0.49 0.49 0.50 0.47 0.42 0.37 0.32 0.28 0.27 0.25 0.22 0.20 0.20 0.21 0.19 0.16 0.14 0.14 0.14 0.16 0.24 0.34 0.43 0.48 0.50 0.51 0.48 0.48 0.47 0.46 0.44 0.45 0.44 0.42 0.40 0.37 0.35 0.36 0.38 0.41 0.46
0.91 0.80 0.68 0.60 0.57 0.55 0.54 0.49 0.44 0.40 0.35 0.32 0.27 0.24 0.22 0.23 0.24 0.22 0.20 0.18 0.15 0.15 0.18 0.29 0.42 0.52 0.57 0.60 0.60 0.56 0.51 0.46 0.45 0.46 0.45 0.44 0.45 0.46 0.46 0.41 0.38 0.40 0.43
1.08 1.02 0.92 0.85 0.78 0.73 0.69 0.66 0.62 0.57 0.48 0.42 0.36 0.32 0.30 0.29 0.29 0.29 0.27 0.25 0.21 0.18 0.19 0.25 0.36 0.47 0.53 0.60 0.67 0.68 0.64 0.56 0.51 0.46 0.45 0.45 0.42 0.43 0.47 0.48 0.46 0.44 0.43
1.23 1.15 1.06 0.92 0.83 0.87 0.87 0.81 0.73 0.67 0.55 0.45 0.38 0.34 0.32 0.32 0.32 0.33 0.35 0.34 0.31 0.26 0.22 0.22 0.26 0.35 0.43 0.54 0.68 0.81 0.87 0.77 0.65 0.57 0.52 0.49 0.45 0.42 0.42 0.45 0.48 0.47 0.45
1.38 1.33 1.21 1.12 1.05 0.93 0.90 0.90 0.82 0.71 0.63 0.55 0.47 0.39 0.33 0.30 0.30 0.30 0.29 0.30 0.33 0.32 0.29 0.27 0.26 0.28 0.35 0.46 0.62 0.83 0.98 0.96 0.85 0.73 0.65 0.60 0.56 0.51 0.47 0.47 0.46 0.46 0.48
1.52 1.46 1.33 1.27 1.28 1.18 1.03 0.91 0.85 0.80 0.70 0.67 0.64 0.55 0.47 0.41 0.37 0.33 0.30 0.29 0.28 0.29 0.28 0.25 0.24 0.25 0.28 0.34 0.47 0.63 0.79 0.94 1.00 0.93 0.82 0.74 0.69 0.66 0.64 0.63 0.60 0.58 0.56
1.66 1.64 1.50 1.40 1.35 1.27 1.16 1.07 0.98 0.93 0.89 0.85 0.83 0.71 0.58 0.53 0.50 0.45 0.41 0.39 0.36 0.34 0.32 0.30 0.27 0.25 0.23 0.25 0.30 0.41 0.54 0.71 0.88 0.98 1.00 0.97 0.89 0.83 0.80 0.81 0.79 0.75 0.72
1.72 1.67 1.63 1.56 1.48 1.42 1.39 1.34 1.28 1.18 1.11 1.11 1.10 1.05 0.87 0.69 0.53 0.47 0.48 0.46 0.42 0.40 0.37 0.34 0.31 0.28 0.25 0.23 0.23 0.26 0.35 0.48 0.67 0.86 0.97 1.01 1.02 1.01 1.02 1.04 1.03 0.99 0.92
1.84 1.74 1.71 1.72 1.62 1.53 1.45 1.41 1.37 1.31 1.24 1.22 1.24 1.28 1.12 0.84 0.60 0.48 0.43 0.43 0.43 0.43 0.42 0.42 0.43 0.40 0.35 0.31 0.28 0.26 0.26 0.30 0.45 0.67 0.88 1.00 1.03 1.08 1.15 1.24 1.32 1.32 1.22
1.92 1.86 1.80 1.79 1.74 1.65 1.51 1.45 1.40 1.31 1.27 1.23 1.23 1.17 1.07 0.89 0.81 0.66 0.48 0.44 0.45 0.45 0.44 0.45 0.47 0.49 0.49 0.48 0.45 0.41 0.35 0.31 0.37 0.52 0.75 0.99 1.15 1.24 1.30 1.34 1.40 1.46 1.44
1.93 1.85 1.80 1.79 1.71 1.64 1.60 1.61 1.54 1.48 1.37 1.28 1.23 1.20 1.17 1.02 0.86 0.82 0.65 0.50 0.50 0.50 0.51 0.52 0.52 0.51 0.52 0.52 0.48 0.49 0.50 0.45 0.47 0.56 0.73 0.97 1.17 1.37 1.51 1.57 1.58 1.60 1.59
1.97 1.87 1.75 1.70 1.67 1.64 1.61 1.63 1.67 1.60 1.53 1.45 1.36 1.28 1.28 1.21 1.04 0.98 0.89 0.67 0.59 0.54 0.52 0.54 0.54 0.53 0.53 0.53 0.51 0.56 0.53 0.54 0.58 0.68 0.84 1.01 1.14 1.29 1.48 1.65 1.71 1.70 1.69
1.71 1.69 1.70 1.65 1.60 1.55 1.56 1.57 1.62 1.60 1.54 1.48 1.41 1.35 1.32 1.26 1.17 1.14 1.08 0.90 0.76 0.64 0.60 0.58 0.55 0.53 0.53 0.54 0.55 0.64 0.61 0.63 0.66 0.74 0.88 1.03 1.09 1.14 1.27 1.47 1.69 1.84 1.93
1.63 1.63 1.62 1.62 1.62 1.59 1.55 1.56 1.56 1.56 1.55 1.46 1.35 1.29 1.24 1.18 1.18 1.20 1.18 1.17 1.12 0.90 0.74 0.64 0.57 0.56 0.58 0.61 0.68 0.78 0.71 0.82 0.84 0.87 0.96 1.06 1.10 1.08 1.10 1.19 1.36 1.55 1.69
1.51 1.52 1.50 1.51 1.53 1.54 1.51 1.52 1.51 1.48 1.48 1.45 1.38 1.30 1.19 1.08 1.07 1.08 1.10 1.16 1.28 1.19 0.93 0.71 0.67 0.69 0.74 0.79 0.87 0.84 0.78 0.94 0.98 0.98 1.02 1.06 1.08 1.04 1.02 1.04 1.10 1.18 1.27
1.31 1.34 1.32 1.32 1.35 1.36 1.36 1.38 1.36 1.33 1.31 1.27 1.27 1.27 1.22 1.13 1.10 1.11 1.16 1.20 1.27 1.32 1.16 0.84 0.73 0.74 0.83 0.93 1.05 0.96 0.88 1.01 0.98 0.96 0.98 0.97 0.93 0.90 0.89 0.90 0.93 1.00 1.06
1.11 1.11 1.12 1.12 1.11 1.15 1.18 1.21 1.17 1.17 1.20 1.19 1.17 1.20 1.22 1.19 1.20 1.19 1.24 1.30 1.34 1.40 1.38 1.08 0.89 0.85 0.88 0.90 0.93 0.90 0.85 0.85 0.82 0.91 0.87 0.83 0.79 0.77 0.76 0.78 0.80 0.84 0.88
0.99 0.99 1.00 0.99 0.96 0.94 0.98 1.02 1.04 1.04 1.05 1.07 1.10 1.15 1.17 1.18 1.24 1.26 1.31 1.34 1.36 1.35 1.34 1.20 0.98 0.88 0.83 0.78 0.78 0.78 0.75 0.71 0.67 0.76 0.75 0.72 0.70 0.68 0.69 0.71 0.71 0.73 0.78
0.86 0.88 0.89 0.90 0.90 0.87 0.89 0.91 0.91 0.92 0.94 0.95 0.97 0.99 1.00 1.04 1.11 1.15 1.20 1.25 1.25 1.24 1.24 1.15 0.96 0.81 0.74 0.72 0.75 0.75 0.69 0.65 0.59 0.62 0.63 0.60 0.58 0.57 0.59 0.61 0.64 0.66 0.64
0.69 0.72 0.77 0.80 0.80 0.81 0.85 0.89 0.91 0.91 0.88 0.87 0.87 0.89 0.91 0.95 0.99 1.05 1.12 1.16 1.17 1.18 1.19 1.17 1.07 0.90 0.77 0.70 0.72 0.73 0.70 0.62 0.56 0.51 0.59 0.57 0.54 0.52 0.49 0.48 0.46 0.47 0.49
0.53 0.55 0.60 0.67 0.72 0.74 0.77 0.81 0.84 0.87 0.88 0.88 0.90 0.94 0.99 1.09 1.09 1.05 1.02 1.02 1.04 1.10 1.12 1.12 1.03 0.89 0.77 0.69 0.68 0.63 0.62 0.62 0.61 0.55 0.55 0.52 0.48 0.46 0.45 0.46 0.45 0.42 0.44
0.43 0.46 0.51 0.54 0.60 0.67 0.85 0.83 0.78 0.78 0.86 0.91 0.93 0.93 0.96 1.07 1.04 1.02 0.97 0.92 0.94 1.01 1.06 1.01 0.90 0.76 0.61 0.52 0.52 0.59 0.65 0.72 0.71 0.53 0.53 0.53 0.49 0.49 0.44 0.41 0.47 0.45 0.43
0.42 0.46 0.48 0.52 0.57 0.71 0.89 0.86 0.89 0.80 0.83 0.88 0.91 0.89 0.85 0.82 0.84 0.76 0.81 0.85 0.86 0.85 0.82 0.78 0.75 0.62 0.54 0.49 0.58 0.69 0.70 0.70 0.59 0.44 0.53 0.63 0.56 0.52 0.44 0.43 0.50 0.45 0.44
0.56 0.61 0.66 0.69 0.72 0.82 0.89 0.82 0.79 0.72 0.75 0.77 0.75 0.73 0.70 0.65 0.63 0.64 0.66 0.71 0.63 0.59 0.58 0.55 0.53 0.51 0.51 0.54 0.63 0.74 0.78 0.80 0.70 0.60 0.61 0.68 0.57 0.51 0.44 0.43 0.50 0.48 0.48
0.85 0.83 0.80 0.76 0.72 0.73 0.75 0.71 0.66 0.60 0.61 0.59 0.56 0.56 0.56 0.53 0.61 0.69 0.64 0.60 0.54 0.52 0.56 0.59 0.61 0.61 0.66 0.71 0.74 0.81 0.89 0.99 0.88 0.65 0.56 0.56 0.50 0.46 0.45 0.46 0.49 0.55 0.53
0.79 0.78 0.76 0.72 0.65 0.59 0.55 0.51 0.49 0.45 0.43 0.40 0.39 0.39 0.46 0.47 0.57 0.65 0.58 0.56 0.53 0.45 0.45 0.50 0.52 0.52 0.51 0.55 0.67 0.66 0.75 1.00 0.92 0.68 0.41 0.46 0.50 0.58 0.73 0.50 0.43 0.47 0.53